GFSNGP_con_3kmhel_057.txt.gz
Helicity
153 78 81 109 134 127 132 131 166 134 172 97 106 96 68 42 71 38 60 80 113 151 128 142 169 174 214 241 324 385 415 380 318 320 339 294 291 277 239 233 264 296 303 283
129 120 92 85 91 95 99 123 168 153 141 92 83 102 114 69 33 65 42 108 132 147 157 143 168 190 238 234 273 362 387 386 387 427 397 299 229 286 325 335 314 310 314 327
83 265 223 99 69 102 121 77 131 166 82 87 47 72 81 80 81 78 47 63 95 230 179 208 192 224 232 237 292 328 376 409 461 427 342 275 335 322 320 354 364 341 336 330
76 197 159 126 1 80 130 118 98 103 108 88 53 52 71 71 85 73 77 35 74 168 194 199 266 264 318 349 365 314 345 319 338 355 360 334 316 347 389 367 379 365 377 376
-95 66 120 97 106 36 68 80 123 118 109 107 88 92 114 64 61 69 103 91 99 125 258 321 296 329 396 399 419 380 347 309 331 390 417 383 366 391 397 415 424 405 371 382
2 -156 -2 70 99 90 -27 66 76 183 118 102 178 135 122 191 65 33 52 99 167 218 284 274 314 381 403 406 409 400 385 377 379 377 365 382 378 385 373 374 380 406 422 416
49 63 26 -66 70 43 94 72 124 165 205 228 141 144 147 98 136 62 88 134 202 224 229 211 281 363 385 398 403 411 392 345 310 291 308 351 397 380 383 402 456 498 566 562
41 20 -91 74 71 187 212 148 178 99 89 104 85 72 70 44 52 82 107 187 216 212 187 205 285 350 368 362 388 385 384 361 332 311 311 360 408 400 383 426 477 506 544 592
102 58 34 -116 -99 -26 157 264 150 154 237 254 220 181 140 50 52 87 119 135 168 199 233 251 280 303 342 339 400 415 404 377 362 383 382 374 373 409 445 446 454 461 502 524
125 45 -11 42 48 128 106 105 64 7 137 197 258 324 335 245 146 72 111 163 219 224 214 248 267 294 311 362 361 373 376 364 385 418 438 434 440 424 424 421 433 442 458 495
79 59 25 22 16 22 90 20 6 63 128 95 95 110 142 285 180 113 124 152 197 219 257 278 285 293 292 324 374 391 409 420 449 468 488 528 539 457 454 439 369 418 427 445
108 74 3 24 42 56 -11 38 6 25 50 90 23 2 16 59 159 174 173 193 264 275 294 308 305 307 318 336 370 412 412 423 436 457 465 472 515 598 601 470 441 452 453 473
39 62 103 95 43 170 112 161 145 124 105 89 71 42 6 -51 -7 122 157 257 280 337 404 428 460 497 446 421 436 452 462 450 431 434 436 443 463 523 610 707 711 659 576 495
163 162 49 77 107 143 148 155 110 104 139 119 122 158 153 182 228 158 228 244 360 516 560 561 587 564 480 513 586 637 665 686 710 638 549 512 544 578 557 492 471 476 401 333
144 126 69 42 128 153 122 136 148 156 161 180 158 181 281 425 519 545 594 610 724 786 752 713 751 713 651 670 788 721 717 718 714 665 587 503 419 371 343 325 312 311 307 298
183 119 124 114 89 110 129 159 148 183 157 143 160 191 231 325 450 551 621 653 711 743 710 726 739 673 734 792 802 723 646 582 431 380 377 355 340 334 317 293 302 299 273 268
63 103 69 48 69 82 104 118 98 124 167 160 173 220 289 360 449 520 598 698 784 798 745 727 729 689 646 640 579 502 412 413 390 370 376 376 368 358 331 312 290 270 253 245
116 122 177 169 148 129 137 158 182 152 131 204 262 311 344 386 441 507 546 595 700 792 795 725 668 627 604 514 409 355 338 330 348 354 347 341 304 272 252 234 220 206 197 196
187 199 159 128 169 184 144 150 173 198 210 256 376 459 488 488 500 497 496 569 578 595 564 459 421 377 322 291 269 261 263 272 276 258 228 215 207 196 190 184 186 192 197 209
281 236 186 226 251 240 188 188 227 305 285 339 363 398 453 454 428 430 452 456 385 287 263 258 225 214 218 231 213 188 194 186 170 169 169 172 172 178 178 190 181 185 190 198
272 259 249 252 264 315 308 263 286 330 283 325 315 289 266 241 225 198 232 219 208 191 197 208 164 137 128 128 131 127 130 135 142 144 149 155 167 177 186 190 195 203 213 201
238 245 264 275 291 314 284 241 209 200 213 211 179 146 156 175 168 180 162 112 94 133 122 123 120 138 114 118 105 111 117 123 120 125 135 149 159 171 183 188 185 171 162 166
154 161 173 172 163 149 155 155 148 141 143 135 125 119 114 89 62 58 82 90 92 115 106 103 115 127 122 94 89 96 111 121 119 120 121 129 127 131 130 140 143 147 157 156
137 140 105 81 83 103 114 101 117 120 117 122 131 99 62 60 89 72 59 87 109 109 95 89 105 119 100 78 83 82 77 72 79 80 85 97 94 91 93 88 106 103 105 101
94 101 114 110 115 89 83 84 110 118 123 131 130 124 114 88 51 48 69 80 109 96 100 120 113 102 68 64 60 62 68 70 72 71 73 67 60 61 66 77 76 72 65 63
118 106 100 111 91 83 82 87 98 89 81 99 121 111 108 106 114 119 121 114 97 87 70 62 50 49 57 64 64 60 53 52 62 62 60 55 55 62 62 63 62 63 61 59
137 131 124 140 135 110 97 91 94 94 88 70 82 108 116 120 117 102 88 70 59 62 58 55 62 69 66 65 60 60 54 54 57 42 41 49 64 67 67 64 63 62 61 62

GFSNGP_con_3kmhel_060.txt.gz
Helicity
187 113 116 104 97 145 172 197 134 87 74 53 98 113 87 79 52 63 97 78 82 100 140 182 148 120 125 115 180 252 296 358 370 376 268 221 242 282 284 264 240 170 137 184
136 150 132 62 89 99 124 128 83 82 94 75 46 95 60 46 47 39 50 42 37 75 147 167 177 154 158 129 159 233 258 299 291 300 264 240 269 292 269 244 202 179 272 315
75 122 149 77 95 102 72 67 73 49 97 109 125 110 79 68 76 58 53 52 49 67 120 157 220 199 188 205 239 257 278 273 281 274 258 249 262 284 275 222 279 316 294 283
38 19 108 110 244 120 98 120 128 92 97 108 84 117 96 65 68 55 77 75 60 75 80 100 196 199 225 274 262 279 273 292 304 321 283 289 271 262 296 347 356 322 280 261
33 10 22 60 127 110 17 72 43 48 112 132 91 70 119 69 40 46 110 134 103 40 32 124 173 226 286 297 290 300 305 332 333 345 276 316 324 379 360 336 300 284 290 318
98 68 -3 -63 10 34 -43 35 52 59 44 68 111 150 107 85 87 46 46 42 53 34 64 63 142 274 311 257 264 277 304 328 325 327 328 307 319 303 292 303 355 365 408 404
166 100 41 11 9 2 -91 -38 33 158 202 75 26 60 97 102 58 30 93 71 92 34 62 111 205 255 243 240 236 325 364 370 315 275 258 251 283 282 307 364 445 485 537 558
166 124 91 109 86 -27 -10 19 32 166 291 305 199 89 30 85 49 47 48 57 72 73 74 128 196 256 262 254 279 303 325 318 284 271 259 276 338 368 410 466 546 540 567 620
64 58 88 102 55 18 14 -23 27 64 377 248 262 236 196 91 55 49 8 33 112 210 164 171 153 156 196 200 235 268 295 298 315 320 302 300 337 377 438 456 470 436 433 464
94 68 73 48 19 -19 -65 11 34 5 74 288 258 358 182 216 159 109 118 91 95 114 143 139 157 148 169 182 215 258 288 305 315 360 390 387 393 378 380 363 358 322 352 378
100 97 60 91 27 35 60 41 -48 -41 -2 36 15 -15 -4 64 160 31 47 205 161 107 140 114 172 108 141 178 209 260 283 296 318 339 367 422 437 354 303 287 219 225 264 310
82 123 74 44 31 10 38 99 113 69 90 146 121 9 19 9 57 -22 -46 -52 128 149 147 250 253 249 217 220 241 282 329 323 329 343 351 370 423 524 538 406 393 430 474 494
137 129 72 51 39 39 4 73 75 84 141 177 151 76 107 115 150 118 -12 39 -2 240 231 194 237 295 278 247 280 302 328 327 359 394 432 461 473 511 641 610 574 483 442 445
164 102 75 120 70 90 13 48 57 53 74 125 123 134 109 112 136 158 222 279 306 226 138 241 272 318 289 327 391 454 495 543 502 483 524 517 483 426 331 318 381 364 343 311
139 123 81 84 82 75 55 29 49 54 69 87 155 161 139 176 196 218 249 302 377 448 447 353 451 472 449 440 482 517 540 539 529 519 517 471 372 340 317 278 267 266 293 357
130 137 114 101 82 75 62 64 59 105 117 79 112 159 155 173 226 275 319 361 400 415 464 512 543 508 489 494 509 589 644 667 578 555 500 449 388 330 290 274 257 256 282 280
139 142 141 87 49 87 99 102 98 112 95 102 128 144 182 239 338 407 421 393 416 456 457 462 446 499 501 553 530 539 478 502 451 406 361 301 280 277 273 278 282 286 285 253
121 117 72 88 79 66 122 141 124 115 140 138 164 273 365 421 428 450 435 424 502 552 538 428 410 407 426 359 288 262 280 254 240 240 232 249 251 249 246 235 223 217 217 243
164 165 165 173 160 118 123 108 99 138 169 210 272 334 341 325 367 365 370 434 457 454 397 354 370 333 294 254 207 187 190 194 201 200 190 191 196 192 188 187 197 211 213 215
175 153 147 206 249 217 218 232 259 298 271 294 276 301 346 347 323 336 364 414 328 221 197 203 196 198 187 187 160 133 136 136 135 135 138 146 161 172 178 202 201 206 201 192
186 226 242 254 282 295 287 251 238 272 258 276 282 258 233 212 199 173 219 233 206 166 163 167 130 104 94 94 104 104 111 122 139 141 143 140 154 165 171 172 173 179 173 156
151 168 194 201 208 230 219 187 177 165 150 149 138 128 137 143 144 165 158 116 97 124 106 109 102 126 108 121 105 110 112 121 119 119 123 124 124 132 135 133 134 130 126 132
116 110 119 135 131 113 121 128 126 115 108 100 103 101 98 78 61 60 83 92 84 98 78 72 86 106 111 91 93 102 108 109 101 90 90 89 80 77 78 92 95 100 103 97
96 93 84 73 70 89 106 97 108 110 109 110 113 82 55 56 75 58 48 75 92 90 78 72 88 107 89 67 67 63 59 61 52 47 47 54 58 61 69 65 71 68 75 79
80 85 90 87 88 69 72 70 89 89 96 100 98 91 82 63 26 26 48 56 80 64 60 69 73 67 46 39 39 46 46 51 48 51 53 48 42 38 37 43 44 47 56 60
93 84 80 94 74 61 54 55 70 58 50 73 86 75 77 67 61 60 56 50 42 39 33 36 39 41 48 52 54 58 53 48 47 43 36 31 36 40 39 42 48 55 59 62
111 103 92 108 109 87 80 72 75 73 66 57 69 75 78 73 64 48 42 35 28 32 38 40 44 40 36 42 49 49 45 44 52 45 45 42 41 37 39 43 50 58 63 63

GFSNGP_con_3kmhel_063.txt.gz
Helicity
209 187 142 186 202 177 169 144 132 73 76 58 67 55 30 26 30 53 62 42 49 71 54 74 62 77 88 82 116 137 134 147 219 284 235 209 193 210 221 187 171 189 159 122
180 145 104 110 157 113 107 112 121 136 102 93 68 75 70 37 41 77 81 55 36 49 59 61 103 92 70 82 111 125 148 151 128 175 224 256 230 217 208 184 171 179 170 150
162 161 132 88 92 102 107 79 59 40 36 66 71 70 45 51 67 72 53 44 48 68 103 60 95 162 133 155 175 178 144 116 142 164 198 203 186 154 177 201 176 172 173 172
80 106 93 90 85 84 102 87 90 72 111 112 118 132 131 -5 50 95 74 57 44 56 74 78 74 99 134 136 167 182 161 170 183 196 181 186 184 170 154 158 173 181 189 260
74 31 103 132 105 74 52 78 17 20 69 65 140 7 54 86 -5 41 26 41 67 82 75 65 58 65 100 140 133 151 153 143 159 165 172 184 172 145 224 246 260 304 322 284
102 93 26 38 55 72 -12 -14 12 -5 4 46 71 48 82 269 197 108 61 51 24 35 40 47 69 73 97 136 173 167 166 150 146 172 222 288 320 275 268 289 325 311 320 285
173 102 116 155 154 72 -18 22 136 71 85 48 27 47 131 218 211 204 149 111 20 66 8 8 33 40 82 97 89 191 249 225 214 222 254 269 323 295 314 333 358 380 408 403
87 106 85 35 100 146 106 32 10 19 11 27 79 92 159 169 184 2 80 107 127 119 92 118 95 52 40 86 196 217 214 236 259 316 341 310 301 304 303 328 371 391 429 501
37 39 64 43 38 24 8 -61 -77 -9 45 52 81 117 158 215 166 91 -52 -74 -79 29 105 97 163 250 180 164 188 264 307 307 353 368 321 324 314 294 315 343 384 439 503 571
44 49 39 47 33 62 29 -25 -32 -24 -26 20 36 67 53 137 148 141 35 -6 -104 -32 145 250 294 221 148 126 183 207 223 230 245 265 290 283 277 262 276 311 345 358 372 375
70 49 48 99 104 68 72 54 22 23 -17 46 59 42 59 59 107 104 114 176 157 -20 100 275 279 317 242 98 78 126 153 156 176 243 264 328 395 340 318 310 254 273 285 261
79 102 77 63 65 54 63 65 62 58 68 125 125 121 133 86 109 155 168 114 61 57 -28 67 198 210 259 213 126 109 204 154 186 226 263 295 337 427 417 307 332 362 387 376
131 88 47 47 55 81 56 72 72 50 40 62 132 151 172 139 56 94 146 179 147 112 126 16 66 191 210 182 208 264 225 227 252 280 287 311 353 398 447 517 521 428 362 337
114 78 52 88 58 57 58 71 65 45 49 71 153 127 101 167 203 245 196 154 174 221 286 313 330 273 179 134 201 271 352 405 393 390 393 379 412 419 400 383 426 478 398 299
165 143 68 49 75 70 69 82 101 84 65 76 111 89 57 107 153 157 155 163 182 219 254 274 300 313 292 278 309 349 442 468 496 473 509 540 496 425 413 417 351 268 240 274
137 147 174 173 113 100 80 105 102 84 90 140 139 104 93 155 168 205 265 288 321 274 263 285 307 285 285 300 355 431 486 502 441 449 437 414 387 312 230 228 234 227 226 218
119 127 161 163 126 115 99 98 106 92 87 97 169 204 144 155 237 289 306 316 347 371 318 290 272 294 329 313 320 326 319 339 331 333 277 241 206 198 187 188 194 214 238 243
123 106 94 108 114 114 104 112 128 141 123 123 126 195 270 320 282 313 306 290 355 416 413 328 291 289 300 272 239 236 223 216 223 213 196 212 201 195 196 194 192 191 191 213
133 116 126 134 124 124 140 168 186 203 164 170 240 278 297 322 336 355 349 390 399 387 367 310 304 283 254 215 168 135 133 146 154 160 160 171 176 172 174 180 188 196 198 202
142 135 148 174 201 192 184 188 198 210 222 237 241 284 303 289 262 268 287 340 280 190 169 181 177 166 144 144 120 98 108 118 124 137 150 162 178 189 192 210 195 190 185 177
167 165 179 188 219 231 226 188 193 214 202 200 188 176 177 176 174 136 156 159 142 114 106 109 87 64 72 82 93 99 113 121 134 133 137 137 146 158 163 160 154 148 151 145
155 161 163 164 175 188 180 151 126 107 103 97 82 74 81 85 78 94 94 53 45 79 67 74 72 94 84 105 95 105 113 123 122 120 127 127 128 133 133 130 128 122 116 112
91 92 94 103 96 83 86 91 85 81 84 81 80 78 79 61 45 38 56 70 52 70 62 68 94 115 120 93 92 96 97 98 92 89 102 102 99 97 96 94 88 86 87 85
70 67 61 54 54 71 93 74 78 78 76 80 89 65 42 38 55 38 22 51 70 75 73 72 83 97 83 63 69 72 72 80 80 77 73 73 66 65 66 65 65 66 65 66
73 70 71 70 72 60 48 44 59 67 75 84 84 79 74 55 25 21 43 58 89 75 67 76 71 61 42 42 52 59 59 59 52 50 51 55 57 58 58 58 55 55 57 61
77 70 70 81 64 46 47 48 67 58 50 76 89 71 65 58 54 53 55 55 51 50 49 41 37 37 44 45 47 49 50 51 55 59 59 60 59 60 57 56 54 55 57 60
85 75 74 95 96 84 78 76 75 79 65 57 71 64 60 48 54 47 43 39 36 33 31 29 30 33 38 43 49 53 53 57 58 58 58 62 63 63 61 58 58 58 59 60

GFSNGP_con_3kmhel_066.txt.gz
Helicity
179 192 204 204 142 112 97 90 93 92 65 45 65 69 77 84 43 22 30 43 34 11 35 49 40 62 67 73 106 123 117 120 141 162 152 126 121 111 118 134 125 115 123 141
148 136 131 134 148 119 108 101 104 74 61 71 91 104 74 67 89 53 22 34 65 47 17 38 41 59 66 66 78 102 84 79 45 78 131 180 167 158 144 144 138 137 136 125
159 172 133 57 20 61 99 113 101 88 160 115 84 70 85 113 104 88 50 69 120 89 58 50 46 59 72 78 99 106 80 48 65 64 86 97 120 136 152 159 152 145 136 132
137 209 132 132 163 127 127 165 176 156 109 73 74 53 64 115 120 91 41 65 99 89 83 52 56 54 69 82 96 109 110 99 93 111 111 118 121 130 126 145 165 158 134 111
30 82 115 41 64 166 164 116 117 123 89 63 52 30 46 105 188 163 78 76 106 118 109 123 64 55 47 80 82 100 112 118 127 127 123 131 142 166 159 174 167 172 168 163
5 -23 68 93 97 63 54 83 101 83 100 76 69 75 65 86 103 186 260 210 107 85 29 29 65 62 41 25 78 103 102 116 114 109 134 134 140 174 250 265 312 339 350 309
36 37 73 119 138 124 74 138 163 143 114 95 75 66 83 107 125 97 97 254 176 115 58 44 25 33 35 32 54 95 117 133 148 124 134 171 239 303 362 410 403 395 418 388
92 91 75 109 104 181 232 154 129 92 50 37 38 45 49 64 87 91 104 84 113 173 222 151 83 75 77 100 132 118 128 166 252 316 390 376 307 375 338 336 376 411 413 439
46 48 46 90 76 60 36 6 -1 -14 1 17 24 52 54 73 78 68 59 78 53 -42 29 111 146 217 141 138 139 155 206 273 335 428 457 396 351 336 360 350 345 387 377 432
88 72 69 50 25 52 39 21 1 -7 -5 0 18 45 33 39 83 84 110 161 117 78 -89 -103 10 151 266 262 249 237 268 297 338 392 415 408 361 352 303 294 308 327 356 428
57 57 58 40 71 77 68 37 34 19 5 8 18 35 40 51 109 104 110 142 150 151 144 66 50 160 274 345 308 346 342 284 308 331 342 377 407 335 323 325 284 308 342 363
70 92 88 90 77 45 47 62 40 40 54 58 79 74 78 123 175 206 200 131 96 127 156 224 213 192 168 136 221 268 306 339 339 306 304 315 345 388 488 399 429 450 443 369
67 62 52 42 49 69 59 62 76 68 60 74 64 82 128 110 170 192 211 247 183 151 127 160 172 226 132 92 130 211 199 305 356 347 334 303 454 610 524 615 570 490 424 376
80 61 41 148 85 70 61 57 54 65 78 85 96 91 121 124 121 219 252 248 230 189 192 189 193 236 254 233 227 158 219 225 219 297 399 464 469 468 391 401 473 483 552 492
94 81 57 57 109 66 63 56 60 85 83 113 110 108 131 188 213 191 241 278 174 175 166 194 203 231 244 261 283 279 297 308 339 383 444 473 423 376 369 413 424 400 323 295
94 90 127 133 116 99 87 87 100 112 112 124 150 163 175 217 255 351 302 267 319 316 294 292 282 263 255 247 266 305 325 369 341 321 312 287 250 254 229 230 226 189 181 165
113 130 133 136 123 113 104 92 121 130 128 160 187 200 238 228 239 326 291 285 341 323 332 331 308 325 329 287 233 215 240 277 278 281 287 257 248 241 226 218 201 204 231 266
144 158 167 158 141 111 125 140 135 149 137 187 239 212 251 247 243 237 257 275 323 404 412 369 314 307 294 259 225 188 196 197 197 206 204 212 203 194 189 190 189 188 191 210
147 146 151 157 139 131 145 160 181 175 201 247 269 272 231 213 190 219 244 299 310 333 329 267 256 234 221 204 149 129 133 140 149 152 151 166 173 174 171 173 181 188 186 193
134 143 150 170 176 158 156 161 168 210 219 225 206 241 216 192 171 167 179 249 230 188 157 151 136 140 123 131 115 92 101 114 121 135 148 154 161 163 172 199 181 172 168 163
139 157 179 190 191 186 181 157 160 183 176 164 161 156 139 133 134 111 133 147 137 100 87 104 112 93 97 104 115 121 127 133 144 151 152 150 151 158 154 148 145 137 125 118
149 161 166 157 157 163 151 137 132 118 112 104 85 66 67 70 66 82 106 88 74 96 88 101 111 140 117 132 124 132 137 140 133 127 131 130 128 126 129 123 131 123 116 103
91 93 93 90 78 68 68 75 76 76 83 81 85 88 87 78 78 68 82 96 79 97 90 108 130 143 145 130 129 132 137 138 132 125 120 116 114 124 118 116 107 101 98 95
59 60 56 47 46 61 87 60 65 74 75 80 90 88 67 63 79 76 66 83 102 109 110 108 113 123 115 96 99 101 100 100 97 92 89 104 98 94 95 93 90 85 81 77
73 69 62 60 69 73 67 60 60 68 80 93 97 97 103 94 80 75 76 80 100 87 84 96 96 91 80 79 80 80 89 91 88 83 86 86 87 89 90 89 84 80 69 64
77 74 79 94 86 76 73 71 86 76 73 89 92 88 88 82 77 75 78 83 83 81 72 64 61 57 59 65 72 75 73 74 76 79 76 79 80 78 78 77 73 71 72 73
95 88 91 109 113 114 110 104 99 100 97 89 90 90 87 84 80 71 74 68 65 60 54 46 43 50 52 51 58 61 59 64 70 67 69 69 70 74 77 76 77 77 74 71